Wind_Speed
52 52 53 52 51 51 50 50 49 47 46 47 48 48 49 49 48 48 48 48 47 47 47 47 47 47 48 48 47 47 47 47 48 48 49 49 49 49
53 52 52 51 50 50 50 49 49 48 46 46 47 47 47 47 47 47 46 45 45 45 46 45 45 45 45 45 44 44 44 44 44 45 45 45 45 45
51 51 50 50 50 50 49 49 49 48 47 45 45 45 45 44 44 43 43 43 43 43 44 44 44 44 44 43 43 42 42 42 42 43 43 43 43 43
49 49 49 49 49 49 48 48 48 48 47 45 44 44 42 43 43 42 42 41 41 40 41 41 42 43 43 43 42 41 41 41 41 41 41 42 42 42
47 47 47 47 47 47 48 46 46 46 45 44 43 42 42 41 41 41 41 40 40 38 38 39 40 40 41 40 39 39 39 39 40 39 39 40 40 40
44 44 44 44 44 45 45 44 44 44 43 43 42 40 40 40 40 40 39 39 38 38 38 38 37 38 38 37 37 36 36 37 38 37 37 38 37 37
42 42 42 42 42 43 43 43 43 43 44 43 41 39 39 39 39 38 38 38 38 37 36 36 36 35 35 35 35 35 36 36 35 35 35 34 34 34
41 40 40 41 41 41 42 41 42 42 42 42 41 39 38 38 37 38 37 36 35 35 35 35 35 34 34 33 33 33 33 32 32 32 31 31 32 31
38 39 39 40 40 40 40 39 39 40 40 40 39 38 37 37 36 36 35 35 34 34 33 33 33 33 32 32 31 31 31 30 29 29 29 29 29 29
36 35 36 37 38 38 37 37 37 37 37 37 36 35 35 34 33 33 32 33 33 33 32 31 31 31 31 30 30 29 28 27 26 26 27 26 26 27
33 34 34 34 33 33 33 32 32 32 32 32 32 32 31 31 31 30 30 31 30 30 29 29 28 28 28 27 26 25 23 23 23 23 23 23 23 23
31 32 31 30 30 29 29 28 28 28 28 28 28 28 27 26 27 27 27 27 26 26 26 26 26 25 24 23 22 22 22 22 21 21 21 21 21 20
29 28 28 27 27 27 26 26 26 25 25 26 26 26 25 25 25 25 25 25 25 24 24 23 22 21 21 21 21 21 20 20 20 20 19 19 18 18
26 26 26 25 25 24 24 24 24 23 23 23 23 23 23 23 23 23 23 23 22 21 21 21 20 19 19 19 19 19 19 18 18 18 18 18 18 18
23 23 24 24 24 23 23 22 22 21 20 21 21 21 21 21 21 21 21 21 20 19 19 18 18 18 17 17 17 17 17 17 16 17 18 18 18 18
21 21 22 23 23 22 22 21 20 19 19 20 20 20 20 20 19 18 18 18 18 17 17 16 16 16 15 16 16 15 15 15 15 16 17 17 17 17
19 19 20 21 21 21 21 20 19 18 19 18 18 18 18 18 16 16 16 16 16 16 16 15 14 15 15 14 14 14 15 15 15 15 15 16 16 15
18 18 18 19 19 18 18 17 17 17 17 17 16 16 16 16 15 15 14 14 15 15 14 14 14 13 13 13 14 14 14 13 14 14 14 14 15 15
16 16 16 17 17 16 16 16 16 15 15 15 15 15 14 14 14 14 13 13 13 13 12 12 12 12 12 12 12 13 13 13 13 14 15 15 14 14
14 14 14 14 15 15 15 15 14 14 13 13 12 12 12 13 13 12 12 12 12 12 11 11 11 11 11 11 11 11 12 12 13 13 14 13 12 12
13 12 12 12 13 12 13 13 12 12 11 11 11 11 11 11 11 11 12 12 12 12 11 10 10 10 10 10 10 10 11 11 12 12 12 11 11 10
10 10 10 11 11 11 11 12 11 11 10 10 10 9 10 10 10 10 11 11 11 11 10 10 10 10 10 10 10 10 10 10 10 11 10 10 9 7
8 8 8 9 9 10 10 11 11 11 10 10 9 9 9 9 9 9 9 10 10 9 9 9 9 9 9 9 9 9 9 8 8 8 8 8 7 6
Wind_Direction
271 271 271 270 270 270 271 271 272 272 272 272 272 273 273 274 274 275 275 276 276 277 276 277 278 279 279 279 278 278 277 277 277 276 275 274 273 272
270 271 271 269 269 269 270 270 270 272 273 273 273 273 273 273 273 274 275 275 276 275 275 277 279 279 279 279 279 278 277 277 278 277 276 275 275 274
271 271 271 270 268 268 269 269 270 272 273 272 274 275 273 273 273 274 275 275 275 275 276 277 278 279 280 279 278 277 277 277 277 278 277 277 277 276
271 272 271 269 269 268 269 270 271 272 274 274 274 274 272 272 272 273 275 276 277 277 276 276 277 278 279 278 278 277 277 276 277 277 278 279 279 277
271 271 269 269 269 268 268 270 270 271 274 274 274 273 272 272 272 273 275 277 276 276 277 277 277 277 278 278 278 276 276 276 277 278 279 280 279 278
269 269 269 269 269 269 269 269 270 271 272 273 272 272 272 272 272 272 273 275 276 276 278 278 278 279 278 278 278 277 277 277 279 280 281 281 281 281
269 269 269 268 269 270 270 269 270 271 272 272 272 272 273 273 273 273 274 275 275 276 277 277 279 279 279 280 279 279 279 280 279 279 280 281 282 282
268 268 268 268 268 269 270 270 270 270 271 272 272 272 272 273 273 273 275 275 276 276 277 278 279 280 279 279 279 280 280 280 279 279 280 281 282 282
269 268 267 269 268 268 269 270 270 270 272 273 273 272 272 273 273 273 275 276 276 275 276 278 279 280 280 279 280 280 281 280 279 278 279 281 281 281
268 268 270 269 269 267 268 268 269 271 273 274 274 272 272 273 273 275 274 275 276 275 276 277 278 279 279 279 280 280 280 280 278 278 280 281 281 281
267 268 270 270 267 265 266 268 269 270 272 274 273 272 271 272 272 273 274 275 274 275 276 277 278 279 280 278 278 279 279 279 280 280 281 282 281 282
267 268 269 268 265 263 265 267 268 270 271 272 272 269 268 270 270 272 274 273 273 275 276 277 278 280 279 277 276 277 279 281 282 282 281 283 283 282
268 267 266 265 264 262 263 265 267 269 271 271 269 268 268 269 270 270 270 270 271 273 274 275 276 278 279 277 275 278 280 281 281 280 281 282 281 281
269 266 263 262 262 261 262 264 266 268 271 271 270 268 266 268 270 269 268 269 271 272 273 274 275 274 274 276 275 278 280 281 281 279 280 284 284 283
268 265 263 261 260 260 261 265 267 266 268 269 269 269 267 267 267 268 266 266 269 272 273 275 276 274 273 275 275 277 278 281 283 282 282 285 284 284
267 267 263 260 258 259 261 264 265 264 266 268 268 267 266 265 266 263 263 264 266 268 271 272 273 272 273 273 274 276 280 283 282 282 282 282 282 285
265 265 261 259 258 258 260 262 261 262 265 266 267 267 264 264 263 261 261 260 261 264 267 268 270 271 271 270 274 277 281 283 283 284 283 282 283 285
264 263 261 259 258 256 256 258 260 261 263 265 266 265 261 259 259 260 260 258 260 263 265 266 267 270 271 273 276 279 282 284 286 285 283 283 284 283
263 261 259 257 254 252 253 257 260 260 261 261 261 259 255 252 253 256 258 258 259 260 261 262 265 268 270 272 275 278 280 284 288 289 288 287 285 283
262 261 258 255 253 253 252 254 255 255 256 253 253 251 246 248 251 252 254 258 257 256 256 259 263 266 267 269 273 278 281 284 287 291 293 290 287 287
264 258 256 255 251 251 249 248 248 248 249 250 248 245 246 249 250 250 250 252 254 253 254 257 262 267 269 270 275 281 285 287 290 294 295 293 292 292
262 257 256 255 250 248 245 242 242 245 250 249 245 245 248 250 251 251 249 248 249 249 252 256 259 261 263 269 278 285 288 290 294 298 298 296 294 290
263 260 255 253 248 244 243 244 244 248 248 245 245 245 247 249 250 251 247 244 242 244 251 255 257 258 260 269 278 285 290 291 294 297 297 296 296 292
Height
5624 5623 5622 5622 5621 5621 5620 5620 5621 5622 5623 5621 5619 5617 5616 5614 5613 5611 5610 5608 5606 5604 5603 5601 5599 5598 5596 5594 5592 5591 5590 5589 5588 5587 5586 5585 5585 5585
5610 5609 5608 5608 5607 5607 5607 5606 5606 5607 5609 5609 5606 5604 5602 5601 5600 5598 5597 5595 5594 5592 5590 5589 5587 5585 5584 5582 5580 5579 5578 5577 5576 5575 5573 5572 5572 5571
5596 5595 5594 5593 5594 5594 5593 5594 5594 5593 5594 5595 5593 5592 5590 5588 5587 5586 5585 5583 5581 5580 5578 5577 5575 5574 5572 5570 5569 5568 5566 5565 5564 5563 5562 5561 5560 5560
5583 5581 5580 5580 5580 5580 5580 5581 5581 5580 5580 5581 5581 5579 5577 5576 5575 5574 5573 5572 5570 5569 5567 5565 5564 5562 5561 5559 5558 5557 5556 5555 5554 5553 5552 5551 5549 5548
5570 5568 5567 5567 5568 5568 5568 5568 5568 5568 5567 5567 5568 5566 5565 5565 5564 5563 5562 5561 5560 5558 5556 5555 5553 5552 5550 5549 5547 5546 5546 5545 5544 5543 5541 5540 5538 5537
5557 5556 5555 5555 5555 5556 5556 5556 5556 5556 5555 5554 5555 5554 5554 5553 5552 5552 5552 5550 5549 5548 5546 5545 5544 5542 5540 5539 5538 5537 5536 5535 5534 5532 5531 5530 5528 5526
5545 5544 5544 5544 5544 5544 5544 5544 5544 5544 5543 5543 5543 5543 5543 5542 5542 5541 5540 5540 5538 5537 5536 5535 5534 5533 5531 5530 5528 5527 5526 5525 5524 5523 5522 5520 5519 5516
5534 5533 5533 5533 5533 5533 5533 5533 5533 5533 5533 5532 5532 5532 5532 5532 5531 5530 5530 5529 5529 5529 5527 5526 5525 5524 5522 5521 5520 5518 5517 5516 5515 5514 5513 5511 5509 5507
5522 5522 5522 5522 5522 5522 5522 5522 5522 5522 5522 5522 5522 5522 5522 5522 5522 5521 5520 5519 5519 5518 5517 5517 5515 5514 5513 5512 5511 5510 5509 5507 5506 5505 5504 5503 5501 5499
5512 5512 5512 5512 5511 5512 5512 5512 5512 5512 5512 5512 5513 5513 5512 5512 5512 5512 5511 5510 5510 5509 5508 5508 5507 5505 5504 5504 5503 5501 5500 5499 5498 5498 5497 5495 5494 5492
5502 5502 5502 5502 5502 5502 5503 5503 5503 5503 5502 5502 5503 5503 5503 5503 5503 5503 5503 5502 5502 5501 5500 5500 5499 5498 5496 5496 5495 5494 5493 5492 5492 5491 5490 5488 5487 5486
5493 5493 5493 5493 5493 5493 5494 5495 5495 5495 5494 5494 5494 5494 5494 5494 5494 5494 5494 5494 5494 5494 5493 5492 5491 5490 5490 5489 5488 5487 5487 5486 5485 5485 5483 5482 5481 5480
5484 5484 5484 5484 5485 5486 5486 5487 5487 5487 5487 5487 5486 5487 5487 5487 5487 5487 5487 5487 5487 5487 5486 5485 5485 5484 5483 5483 5483 5482 5481 5480 5479 5479 5478 5477 5476 5476
5476 5476 5477 5477 5478 5479 5479 5479 5480 5480 5480 5480 5480 5480 5480 5480 5480 5480 5480 5480 5480 5480 5479 5479 5479 5478 5478 5477 5477 5477 5476 5475 5474 5473 5472 5471 5471 5470
5469 5469 5470 5470 5471 5472 5472 5473 5473 5473 5473 5473 5473 5473 5474 5474 5474 5474 5474 5474 5474 5474 5473 5473 5473 5473 5473 5472 5472 5472 5471 5470 5469 5468 5467 5466 5465 5465
5462 5462 5463 5464 5465 5465 5466 5467 5467 5467 5467 5467 5467 5468 5468 5468 5468 5468 5468 5469 5469 5469 5468 5468 5468 5468 5468 5468 5468 5467 5467 5466 5465 5464 5463 5462 5461 5460
5456 5456 5457 5457 5458 5459 5460 5461 5461 5461 5462 5462 5462 5462 5462 5462 5463 5463 5463 5464 5464 5464 5464 5464 5464 5464 5464 5464 5464 5463 5463 5462 5461 5460 5459 5458 5457 5456
5450 5451 5451 5452 5452 5453 5455 5455 5456 5456 5456 5457 5457 5457 5458 5458 5458 5458 5459 5459 5460 5460 5460 5460 5460 5460 5460 5460 5460 5460 5459 5458 5457 5456 5455 5454 5453 5452
5445 5445 5446 5447 5447 5449 5450 5450 5451 5451 5451 5452 5452 5453 5453 5454 5454 5455 5455 5456 5456 5456 5456 5456 5456 5456 5457 5457 5457 5456 5455 5454 5453 5452 5451 5450 5449 5448
5441 5441 5442 5442 5443 5444 5445 5445 5446 5447 5447 5448 5448 5449 5449 5450 5451 5451 5452 5452 5453 5453 5453 5453 5453 5454 5454 5454 5453 5453 5452 5451 5450 5448 5447 5446 5445 5444
5437 5438 5438 5438 5439 5440 5441 5441 5442 5443 5444 5444 5445 5445 5446 5447 5447 5448 5448 5449 5449 5450 5450 5451 5451 5451 5450 5450 5450 5450 5449 5448 5447 5445 5444 5443 5442 5441
5434 5434 5435 5435 5436 5436 5437 5438 5439 5440 5440 5441 5442 5442 5443 5444 5444 5445 5446 5446 5447 5448 5448 5448 5448 5448 5449 5449 5448 5447 5447 5446 5444 5443 5442 5441 5440 5439
5431 5431 5432 5432 5433 5433 5434 5435 5436 5437 5438 5439 5439 5440 5440 5441 5442 5443 5443 5444 5445 5445 5446 5446 5446 5447 5447 5446 5446 5445 5444 5443 5443 5442 5441 5439 5438 5438